CCL Home Page
Up Directory CCL info-on-software
info-on-software

Name Last modified Size Description
[Directory] Up Directory
[Text] AVS.info 20-Dec-1993 12:00 6311
[Text] AVS.note 20-Dec-1993 12:00 6311
[Text] Beilstein.note 29-Aug-1995 12:00 5990
[Text] C++_copiler 23-May-1996 12:00 3503
[Text] ChemDesign.note 30-May-1997 12:00 3573
[Text] ChemInnovation.note 25-Aug-1995 12:00 1565
[Text] ChemWeb.note 04-Aug-1995 12:00 1550
[Text] ChenSymphony.note 31-Oct-1997 12:00 2115
[Text] GAMESS.note 14-Apr-1995 12:00 2625
[Text] Gaussian.note 11-Aug-1995 12:00 14401
[Text] HINT.note 25-May-1994 12:00 13545
[Text] HSC.note 08-Jul-1994 12:00 2420
[Text] Hypercube-ab-initio 13-Apr-1995 12:00 5590
[Text] Hypercube-sgi 13-Apr-1995 12:00 4833
[Text] MOE.note 11-Mar-1997 12:00 2648
[Text] MacSpartan.note 09-May-1996 12:00 2728
[Text] NAB.info 12-May-1997 12:00 3669
[Text] README 04-Nov-1993 12:00 94
[Text] SCULPT.note 31-Oct-1997 12:00 2442
[Text] ZINDO.note 26-Aug-1994 12:00 2980
[Text] accumodel.note 26-Feb-1997 12:00 2011
[Text] adf 18-Nov-1993 12:00 1061
[Text] aimpas.note 06-Oct-1995 12:00 348
[Text] amber.note 25-Nov-1997 12:00 7395
[Text] ampac-demo-form 24-Jan-1995 12:00 2699
[Text] ampac.note 15-Sep-1992 12:00 1874
[Text] cameo.note 17-Jan-1998 12:00 1680
[Text] camp-atami.note 09-Mar-1995 12:00 11295
[Text] chem-spellchecker 18-Nov-1992 12:00 1485
[Text] crystallographica 18-Jul-1996 12:00 2316
[Text] daylight.note 03-Jun-1997 12:00 4135
[Text] gaussian.note 17-Apr-1997 12:00 9371
[Text] hyper.note 12-Apr-1993 12:00 3124
[Text] hypercube.note 27-Jan-1994 12:00 3971
[Text] interchem.note 10-Dec-1992 12:00 14759
[Text] interprobe.note 11-Sep-1995 12:00 2492
[Text] macromodel.note 14-May-1997 12:00 23665
[Text] menu 24-Feb-1999 01:01 3205
[Text] microsimulations.note 22-Oct-1996 12:00 10558
[Text] mol2mol.note 05-Sep-1995 12:00 4393
[Text] molecular_graphics_packages 31-Mar-1994 12:00 48463
[Text] molscript.note 21-Feb-1995 12:00 8808
[Text] moviemol.note 10-Jan-1995 12:00 2754
[Text] pharmacokinetics.software 19-Mar-1993 12:00 8041
[Directory] q-chem 27-Mar-1999 22:05
[Text] semichem.note 11-Apr-1997 12:00 2283
[Text] sibiq.note 09-Feb-1994 12:00 5528
[Text] softek.info 18-Apr-1995 12:00 1610
[Text] spartan-wavefunct.note 01-Sep-1995 12:00 2472
[Text] unichem.note 30-May-1996 12:00 6677
[Text] winmgh.note 06-Oct-1996 12:00 3132

Modified: Wed Apr 7 16:12:30 1999 GMT
Page accessed 8622 times since Sat Apr 17 21:27:01 1999 GMT